Location: *
(43.4667°N, 11.6833°E)
Time: 07:46:29
(UTC+00:00)

Cosmos 2219 Rocket - Pass Details

Date: 19 July 2019
Orbit: 829 x 845 km, 71.0° (Epoch: 25 August)

Event Time Altitude Azimuth Distance (km) Brightness Sun altitude
Exits shadow 21:16:15 30° 187° (S) 1,482 3.0 -19.8°
Maximum altitude 21:19:08 69° 111° (ESE) 901 2.1 -20.1°
Drops below altitude 10° 21:24:46 10° 29° (NNE) 2,470 5.0 -20.6°
Sets 21:27:13 0° 28° (NNE) 3,407 5.8 -20.8°
